sat.trackr.live / text

‹ back to catalog

NUSAT-35 (WILLIAMINA)

NORAD 55048 · 2023-001AR

PAYLOAD ACTIVE UNKNOWN

§ Identity

Operator
Country
ARGN
Launch date
2023-01-03
Launch site
AFETR
Launch vehicle
Mass (kg)
RCS (m²)

External: N2YO · Heavens-Above · Gunter

§ Orbital elements

Epoch: 2026-09-21T22:56:28.140000Z

Period
93.67 min
Inclination
97.1755°
Eccentricity
0.0012269
Mean motion
15.37319068 rev/d
Perigee alt
445.7 km
Apogee alt
462.4 km
Semi-major
6,832.2 km
B*
2.6651e-4
RAAN
315.3706°
Arg perigee
110.4652°
Mean anomaly
249.7912°
Rev number
20,726

§ Raw data

NUSAT-35 (WILLIAMINA)1 55048U 23001AR  26264.95588125  .00009692  00000+0  26651-3 0  99992 55048  97.1755 315.3706 0012269 110.4652 249.7912 15.37319068207266

JSON: /api/v1/satellites/55048 · /tle

For live sub-satellite position, see the globe view (requires WebGL).

§ Visibility from observer

Set your observer location to see the next 7 days of passes ≥ 10°. The values pass through the URL so the page stays shareable.

No JS? Fill the form by hand. The geolocation button needs JavaScript.